• Join FlightAware (Why Join?)
  • Login
  • US Flag 
10:13PM EDT


 

Airport Tracker/Info


-or-


 

Live Flight TrackerFlight Track Log ✈ ASQ5025 ✈ 26-Apr-2013 ✈ KBTV - KLGA

Flight Track Log - Related Links

Times and Time Zones

All times are in EDT time to prevent confusion due to time zone crossing. See the ASQ5025 flight status page for this flight to view local times or setup timezone preferences in your user account.

Time Position Orientation Groundspeed Altitude Reporting Facility
EDT Latitude Longitude Course Direction KTS MPH feet Rate Location/Type
11:12AM 44.4958 -73.2694 201° Southwest 231 266 7,000  Level Boston Center
11:13AM 44.4311 -73.3036 201° Southwest 223 257 9,900 2,340 Climbing Boston Center
11:14AM 44.3517 -73.3286 193° South 267 307 11,700 1,980 Climbing Boston Center
11:15AM 44.2619 -73.3561 192° South 314 361 13,900 1,980 Climbing Boston Center
11:16AM 44.1553 -73.3864 192° South 358 412 16,100 1,800 Climbing Boston Center
11:17AM 44.0319 -73.4247 193° South 381 438 17,900 1,860 Climbing Boston Center
11:18AM 43.9233 -73.4575 192° South 391 450 19,900 1,920 Climbing Boston Center
11:19AM 43.8128 -73.4903 192° South 402 463 21,800 1,020 Climbing Boston Center
11:20AM 43.6978 -73.5283 193° South 415 478 22,000 60 Climbing Boston Center
11:21AM 43.5850 -73.5550 190° South 435 501 22,000  Level Boston Center
11:22AM 43.4617 -73.5956 193° South 455 524 22,000  Level Boston Center
11:23AM 43.3342 -73.6303 191° South 460 529 22,000  Level Boston Center
11:24AM 43.2108 -73.6708 193° South 460 529 22,000  Level Boston Center
11:25AM 43.0706 -73.7133 192° South 465 535 22,000  Level Boston Center
11:26AM 42.9431 -73.7475 191° South 465 535 22,000 -360 Level Boston Center
11:27AM 42.8197 -73.7847 192° South 465 535 21,300 -720 Descending Boston Center
11:28AM 42.6944 -73.7933 183° South 460 529 20,600 -780 Descending Boston Center
11:29AM 42.5719 -73.7708 172° South 449 517 19,800 -780 Descending Boston Center
11:30AM 42.4492 -73.7483 172° South 454 522 19,100 -720 Descending Boston Center
11:31AM 42.3286 -73.7150 168° South 449 517 18,400 -600 Descending Boston Center
11:32AM 42.2122 -73.6958 173° South 444 511 18,000 -240 Descending Boston Center
11:33AM 42.0953 -73.7158 187° South 429 494 18,000  Level Boston Center
11:34AM 41.9822 -73.7472 192° South 424 488 18,000 -780 Level Boston Center
11:35AM 41.8589 -73.7753 190° South 418 481 16,300 -2,040 Descending Boston Center
11:36AM 41.7378 -73.8061 191° South 411 473 14,000 -2,160 Descending Boston Center
11:37AM 41.6458 -73.8292 191° South 396 456 12,000 -1,920 Descending Boston Center
11:38AM 41.5667 -73.8500 191° South 331 381 10,700 -1,380 Descending New York TRACON
11:39AM 41.5000 -73.8667 191° South 291 335 9,800 -900 Descending New York TRACON
11:40AM 41.4167 -73.8500 171° South 291 335 9,000 -420 Descending New York TRACON
11:41AM 41.3500 -73.8000 151° Southeast 288 331 9,000 -360 Level New York TRACON
11:42AM 41.2833 -73.7333 143° Southeast 284 327 8,300 -900 Descending New York TRACON
11:43AM 41.2167 -73.6833 151° Southeast 269 310 7,300 -1,020 Descending New York TRACON
11:44AM 41.1667 -73.6333 143° Southeast 276 318 6,400 -1,020 Descending New York TRACON
11:45AM 41.1000 -73.6000 159° South 267 307 5,400 -1,020 Descending New York TRACON
11:46AM 41.0167 -73.5833 171° South 265 305 4,400 -720 Descending New York TRACON
11:47AM 40.9500 -73.6000 191° South 259 298 4,000 -240 Descending New York TRACON
11:48AM 40.9000 -73.6167 194° South 254 292 4,000  Level New York TRACON
11:49AM 40.8333 -73.6500 201° Southwest 251 289 4,000  Level New York TRACON
11:50AM 40.8000 -73.7333 242° Southwest 249 287 4,000  Level New York TRACON
11:51AM 40.7833 -73.8167 255° West 227 261 4,000  Level New York TRACON
11:52AM 40.7833 -73.8833 270° West 181 208 4,000  Level New York TRACON
11:53AM 40.7667 -73.9500 252° West 177 204 4,000  Level New York TRACON
11:54AM 40.7500 -74.0000 246° West 186 214 4,000 -540 Level New York TRACON
11:55AM 40.7000 -74.0167 194° South 205 236 3,000 -780 Descending New York TRACON
11:56AM 40.6833 -73.9667 114° Southeast 199 229 2,500 -480 Descending New York TRACON
11:57AM 40.7167 -73.9167 49° Northeast 170 196 2,100 -720 Descending New York TRACON
11:58AM 40.7333 -73.8667 66° East 150 173 1,100 -900 Descending New York TRACON
11:59AM 40.7667 -73.8333 37° Northeast 138 159 400 -720 Descending New York TRACON